TimeCDT,TemperatureF,Dew PointF,Humidity,Sea Level PressureIn,VisibilityMPH,Wind Direction,Wind SpeedMPH,Gust SpeedMPH,PrecipitationIn,Events,Conditions,WindDirDegrees,DateUTC
12:52 AM,44.1,39.9,85,29.46,10.0,South,8.1,-,N/A,,Overcast,170,2012-10-19 05:52:00
1:52 AM,44.1,39.9,85,29.46,10.0,South,9.2,-,N/A,,Overcast,170,2012-10-19 06:52:00
2:52 AM,44.1,39.9,85,29.45,10.0,SSE,9.2,-,N/A,,Overcast,150,2012-10-19 07:52:00
3:52 AM,44.1,41.0,89,29.45,10.0,SSE,3.5,-,0.00,,Overcast,160,2012-10-19 08:52:00
4:52 AM,44.1,41.0,89,29.45,10.0,South,4.6,-,N/A,,Overcast,170,2012-10-19 09:52:00
5:52 AM,44.1,41.0,89,29.46,10.0,Calm,Calm,-,N/A,,Overcast,0,2012-10-19 10:52:00
6:52 AM,43.0,39.9,89,29.46,10.0,Calm,Calm,-,N/A,,Overcast,0,2012-10-19 11:52:00
7:52 AM,44.1,41.0,89,29.47,10.0,Calm,Calm,-,N/A,,Overcast,0,2012-10-19 12:52:00
8:30 AM,46.4,42.8,87,29.47,10.0,Calm,Calm,-,0.00,Rain,Light Rain,0,2012-10-19 13:30:00
8:52 AM,46.0,41.0,83,29.49,10.0,Calm,Calm,-,0.00,Rain,Light Rain,0,2012-10-19 13:52:00
9:42 AM,46.4,42.8,87,29.48,10.0,NNW,4.6,-,0.00,Rain,Light Rain,330,2012-10-19 14:42:00
9:52 AM,46.9,42.1,83,29.49,10.0,NW,4.6,-,0.00,,Mostly Cloudy,320,2012-10-19 14:52:00
10:03 AM,46.4,42.8,87,29.48,10.0,NNW,3.5,-,N/A,,Overcast,330,2012-10-19 15:03:00
10:14 AM,48.2,42.8,82,29.48,10.0,NNW,4.6,-,N/A,,Overcast,340,2012-10-19 15:14:00
10:27 AM,46.4,42.8,87,29.48,10.0,North,5.8,-,N/A,,Overcast,10,2012-10-19 15:27:00
10:35 AM,46.4,42.8,87,29.48,10.0,NNE,9.2,-,N/A,,Overcast,30,2012-10-19 15:35:00
10:52 AM,46.9,43.0,86,29.49,10.0,NNE,8.1,-,N/A,,Overcast,30,2012-10-19 15:52:00
11:28 AM,48.2,42.8,82,29.49,10.0,North,8.1,-,N/A,,Mostly Cloudy,10,2012-10-19 16:28:00
11:52 AM,48.0,42.1,80,29.50,10.0,NNE,9.2,-,N/A,,Mostly Cloudy,20,2012-10-19 16:52:00
12:52 PM,48.0,42.1,80,29.50,10.0,NNE,8.1,-,N/A,,Mostly Cloudy,30,2012-10-19 17:52:00
12:59 PM,48.2,41.0,76,29.49,10.0,NNE,5.8,-,N/A,,Overcast,30,2012-10-19 17:59:00
1:52 PM,48.9,42.1,77,29.50,10.0,NE,4.6,-,N/A,,Mostly Cloudy,40,2012-10-19 18:52:00
2:52 PM,48.9,42.1,77,29.51,10.0,ENE,5.8,-,N/A,,Mostly Cloudy,60,2012-10-19 19:52:00
3:52 PM,48.9,42.1,77,29.53,10.0,NE,5.8,-,N/A,,Mostly Cloudy,50,2012-10-19 20:52:00
4:52 PM,48.0,42.1,80,29.55,10.0,NNE,6.9,-,0.00,Rain,Light Rain,20,2012-10-19 21:52:00
5:16 PM,48.2,42.8,82,29.54,10.0,NNE,8.1,-,0.00,,Overcast,20,2012-10-19 22:16:00
5:52 PM,46.9,42.1,83,29.57,10.0,NNE,10.4,-,0.00,,Overcast,20,2012-10-19 22:52:00
6:52 PM,46.9,42.1,83,29.59,10.0,North,5.8,-,0.00,Rain,Light Rain,360,2012-10-19 23:52:00
7:13 PM,46.4,42.8,87,29.58,10.0,North,6.9,-,0.00,Rain,Light Rain,350,2012-10-20 00:13:00
7:52 PM,46.9,43.0,86,29.60,10.0,NW,6.9,-,0.00,Rain,Light Rain,320,2012-10-20 00:52:00
8:52 PM,46.9,43.0,86,29.61,10.0,NNW,4.6,-,0.00,,Overcast,330,2012-10-20 01:52:00
9:52 PM,46.9,43.0,86,29.62,10.0,WNW,4.6,-,N/A,,Overcast,290,2012-10-20 02:52:00
10:52 PM,46.9,43.0,86,29.63,10.0,WNW,5.8,-,N/A,,Overcast,300,2012-10-20 03:52:00
11:52 PM,48.0,42.1,80,29.63,10.0,WNW,6.9,-,N/A,,Overcast,290,2012-10-20 04:52:00